When you browse on this site, cookies collect data to enhance your experience and personalize the content and advertising you see.
Visit our Privacy Policy to learn more. By continuing to use the site, you agree to this use of cookies and data.
  • Em Portugal
  • Lista de países
  • Para 7 dias
  • Temperatura da água
  • Mapas de satélite
  • Mapa do tempo
  • Widgets de tempo
  • user-avatar
    Iniciar Sessão

    Previsão horária em Bansko

    Hoje, 18 Fevereiro, Segunda-feira

    Tempo Temperatura Precipitação Vento Pressão Humidade
    00:00 +6°C° 0 mm 1 m/s 726 mmHg 64%
    01:00 +6°C° 0 mm 1 m/s 726 mmHg 64%
    02:00 +6°C° 0 mm 1 m/s 726 mmHg 65%
    03:00 +6°C° 0 mm 1 m/s 726 mmHg 64%
    04:00 +6°C° 0 mm 1 m/s 726 mmHg 63%
    05:00 +5°C° 0 mm 1 m/s 726 mmHg 63%
    06:00 +6°C° 0 mm 1 m/s 726 mmHg 62%
    07:00 +6°C° 0 mm 1 m/s 726 mmHg 60%
    08:00 +6°C° 0 mm 1 m/s 726 mmHg 59%
    09:00 +8°C° 0 mm 1 m/s 726 mmHg 55%
    10:00 +10°C° 0 mm 0 m/s 726 mmHg 51%
    11:00 +12°C° 0 mm 0 m/s 726 mmHg 47%
    12:00 +13°C° 0 mm 0 m/s 726 mmHg 45%
    13:00 +14°C° 0 mm 0 m/s 725 mmHg 43%
    14:00 +15°C° 0 mm 1 m/s 725 mmHg 42%
    15:00 +15°C° 0 mm 1 m/s 725 mmHg 45%
    16:00 +13°C° 0 mm 0 m/s 725 mmHg 48%
    17:00 +13°C° 0 mm 0 m/s 724 mmHg 51%
    18:00 +12°C° 0 mm 1 m/s 724 mmHg 54%
    19:00 +10°C° 0 mm 1 m/s 724 mmHg 57%
    20:00 +9°C° 0 mm 1 m/s 724 mmHg 60%
    21:00 +8°C° 0 mm 1 m/s 725 mmHg 62%
    22:00 +8°C° 0 mm 1 m/s 725 mmHg 63%
    23:00 +7°C° 0 mm 1 m/s 725 mmHg 65%

    Amanhã, 19 Fevereiro, Terça-feira

    Tempo Temperatura Precipitação Vento Pressão Humidade
    00:00 +7°C° 0 mm 1 m/s 725 mmHg 66%
    01:00 +7°C° 0 mm 1 m/s 725 mmHg 66%
    02:00 +7°C° 0 mm 1 m/s 725 mmHg 67%
    03:00 +6°C° 0 mm 1 m/s 725 mmHg 68%
    04:00 +6°C° 0 mm 1 m/s 724 mmHg 68%
    05:00 +6°C° 0 mm 1 m/s 724 mmHg 68%
    06:00 +6°C° 0 mm 1 m/s 724 mmHg 67%
    07:00 +6°C° 0 mm 1 m/s 724 mmHg 66%
    08:00 +6°C° 0 mm 1 m/s 725 mmHg 66%
    09:00 +8°C° 0 mm 1 m/s 725 mmHg 60%
    10:00 +10°C° 0 mm 1 m/s 725 mmHg 55%
    11:00 +13°C° 0 mm 1 m/s 725 mmHg 50%
    12:00 +13°C° 0 mm 2 m/s 724 mmHg 48%
    13:00 +14°C° 0 mm 2 m/s 724 mmHg 46%
    14:00 +14°C° 0 mm 2 m/s 723 mmHg 44%
    15:00 +14°C° 0 mm 2 m/s 723 mmHg 47%
    16:00 +14°C° 0 mm 2 m/s 723 mmHg 49%
    17:00 +13°C° 0 mm 2 m/s 722 mmHg 52%
    18:00 +11°C° 0 mm 1 m/s 722 mmHg 57%
    19:00 +10°C° 0 mm 1 m/s 723 mmHg 62%
    20:00 +8°C° 0 mm 1 m/s 723 mmHg 68%
    21:00 +8°C° 0 mm 1 m/s 723 mmHg 69%
    22:00 +7°C° 0 mm 1 m/s 723 mmHg 70%
    23:00 +7°C° 0 mm 1 m/s 723 mmHg 72%

    Depois de amanhã, 20 Fevereiro, Quarta-feira

    Tempo Temperatura Precipitação Vento Pressão Humidade
    00:00 +6°C° 0 mm 1 m/s 723 mmHg 72%
    01:00 +6°C° 0 mm 1 m/s 723 mmHg 73%
    02:00 +6°C° 0 mm 1 m/s 723 mmHg 73%
    03:00 +6°C° 0 mm 1 m/s 723 mmHg 74%
    04:00 +5°C° 0 mm 1 m/s 722 mmHg 74%
    05:00 +5°C° 0 mm 1 m/s 722 mmHg 74%
    06:00 +5°C° 0 mm 1 m/s 723 mmHg 74%
    07:00 +6°C° 0 mm 1 m/s 723 mmHg 73%
    08:00 +6°C° 0 mm 1 m/s 723 mmHg 73%
    09:00 +8°C° 0 mm 1 m/s 723 mmHg 65%
    10:00 +10°C° 0 mm 1 m/s 723 mmHg 57%
    11:00 +12°C° 0 mm 2 m/s 724 mmHg 49%
    12:00 +12°C° 0 mm 2 m/s 723 mmHg 46%
    13:00 +13°C° 0 mm 2 m/s 723 mmHg 42%
    14:00 +14°C° 0 mm 2 m/s 723 mmHg 39%
    15:00 +13°C° 0 mm 2 m/s 723 mmHg 42%
    16:00 +13°C° 0 mm 2 m/s 723 mmHg 44%
    17:00 +12°C° 0 mm 2 m/s 723 mmHg 47%
    18:00 +9°C° 0 mm 2 m/s 723 mmHg 53%
    19:00 +8°C° 0 mm 2 m/s 724 mmHg 58%
    20:00 +6°C° 0 mm 2 m/s 724 mmHg 63%
    21:00 +6°C° 0 mm 2 m/s 724 mmHg 67%
    22:00 +5°C° 0 mm 2 m/s 725 mmHg 70%
    23:00 +6°C° 0 mm 1 m/s 725 mmHg 73%

    21 Fevereiro, Quinta-feira

    Tempo Temperatura Precipitação Vento Pressão Humidade
    00:00 +5°C° 0 mm 1 m/s 725 mmHg 76%
    01:00 +5°C° 0 mm 1 m/s 725 mmHg 78%
    02:00 +5°C° 0 mm 1 m/s 725 mmHg 81%
    03:00 +5°C° 0 mm 1 m/s 725 mmHg 79%
    04:00 +4°C° 0 mm 1 m/s 726 mmHg 78%
    05:00 +4°C° 0 mm 1 m/s 726 mmHg 77%
    06:00 +4°C° 0 mm 1 m/s 726 mmHg 75%
    07:00 +4°C° 0 mm 1 m/s 726 mmHg 73%
    08:00 +5°C° 0 mm 1 m/s 727 mmHg 71%
    09:00 +6°C° 0 mm 1 m/s 727 mmHg 61%
    10:00 +7°C° 0 mm 2 m/s 727 mmHg 52%
    11:00 +9°C° 0 mm 2 m/s 727 mmHg 42%
    12:00 +10°C° 0 mm 2 m/s 727 mmHg 40%
    13:00 +10°C° 0 mm 2 m/s 727 mmHg 37%
    14:00 +12°C° 0 mm 2 m/s 726 mmHg 35%
    15:00 +12°C° 0 mm 2 m/s 726 mmHg 37%
    16:00 +10°C° 0 mm 2 m/s 726 mmHg 40%
    17:00 +10°C° 0 mm 2 m/s 725 mmHg 42%
    18:00 +9°C° 0 mm 1 m/s 726 mmHg 47%
    19:00 +8°C° 0 mm 1 m/s 726 mmHg 51%
    20:00 +6°C° 0 mm 1 m/s 726 mmHg 56%
    21:00 +6°C° 0 mm 1 m/s 726 mmHg 58%
    22:00 +6°C° 0 mm 1 m/s 726 mmHg 61%
    23:00 +5°C° 0 mm 1 m/s 726 mmHg 63%

    22 Fevereiro, Sexta-feira

    Tempo Temperatura Precipitação Vento Pressão Humidade
    00:00 +5°C° 0 mm 1 m/s 726 mmHg 62%
    01:00 +5°C° 0 mm 1 m/s 726 mmHg 62%
    02:00 +5°C° 0 mm 1 m/s 726 mmHg 62%
    03:00 +5°C° 0 mm 1 m/s 726 mmHg 62%
    04:00 +5°C° 0 mm 1 m/s 726 mmHg 62%
    05:00 +5°C° 0 mm 1 m/s 725 mmHg 62%
    06:00 +5°C° 0 mm 1 m/s 725 mmHg 64%
    07:00 +5°C° 0 mm 1 m/s 725 mmHg 65%
    08:00 +6°C° 0 mm 1 m/s 725 mmHg 67%
    09:00 +7°C° 0.1 mm 1 m/s 725 mmHg 66%
    10:00 +7°C° 0.1 mm 2 m/s 726 mmHg 66%
    11:00 +8°C° 0.1 mm 2 m/s 726 mmHg 65%
    12:00 +9°C° 0.1 mm 3 m/s 725 mmHg 64%
    13:00 +9°C° 0.1 mm 3 m/s 725 mmHg 63%
    14:00 +10°C° 0.1 mm 3 m/s 724 mmHg 62%
    15:00 +9°C° 0.1 mm 3 m/s 724 mmHg 65%
    16:00 +9°C° 0.1 mm 3 m/s 724 mmHg 67%
    17:00 +8°C° 0.1 mm 3 m/s 724 mmHg 70%
    18:00 +7°C° 0.1 mm 3 m/s 725 mmHg 74%
    19:00 +6°C° 0.1 mm 2 m/s 725 mmHg 78%
    20:00 +6°C° 0.1 mm 2 m/s 725 mmHg 82%
    21:00 +6°C° 0.2 mm 2 m/s 726 mmHg 83%
    22:00 +5°C° 0.2 mm 2 m/s 726 mmHg 84%
    23:00 +5°C° 0.2 mm 2 m/s 727 mmHg 86%

    23 Fevereiro, Sábado

    Tempo Temperatura Precipitação Vento Pressão Humidade
    00:00 +5°C° 0.1 mm 2 m/s 727 mmHg 87%
    01:00 +5°C° 0.1 mm 2 m/s 728 mmHg 88%
    02:00 +5°C° 0.1 mm 2 m/s 728 mmHg 89%
    03:00 +4°C° 0 mm 2 m/s 729 mmHg 88%
    04:00 +3°C° 0 mm 3 m/s 729 mmHg 87%
    05:00 +3°C° 0 mm 3 m/s 730 mmHg 87%
    06:00 +2°C° 0 mm 3 m/s 731 mmHg 83%
    07:00 +1°C° 0 mm 3 m/s 731 mmHg 79%
    08:00 -1°C° 0 mm 4 m/s 732 mmHg 76%
    09:00 0°C° 0 mm 4 m/s 733 mmHg 66%
    10:00 +1°C° 0 mm 4 m/s 733 mmHg 56%
    11:00 +3°C° 0 mm 4 m/s 734 mmHg 46%
    12:00 +3°C° 0 mm 4 m/s 734 mmHg 40%
    13:00 +3°C° 0 mm 4 m/s 734 mmHg 35%
    14:00 +3°C° 0 mm 4 m/s 734 mmHg 29%
    15:00 +3°C° 0 mm 4 m/s 734 mmHg 30%
    16:00 +1°C° 0 mm 4 m/s 733 mmHg 32%
    17:00 +1°C° 0 mm 4 m/s 733 mmHg 33%
    18:00 0°C° 0 mm 3 m/s 733 mmHg 38%
    19:00 -1°C° 0 mm 3 m/s 733 mmHg 43%
    20:00 -2°C° 0 mm 2 m/s 733 mmHg 48%
    21:00 -2°C° 0 mm 2 m/s 733 mmHg 47%
    22:00 -2°C° 0 mm 2 m/s 733 mmHg 46%
    23:00 -2°C° 0 mm 2 m/s 733 mmHg 45%
    Mostrar mais